Wind_Speed
51 51 60 51 47 52 54 57 58 58 54 57 57 57 54 50 54 54 51 46 47 46 47 46 42 40 38 36 37 38 35 34 34 34 34 36 36 36 35 36 37 39 39 39
52 52 48 46 44 48 54 57 57 56 56 58 59 60 58 52 52 54 53 49 48 50 52 50 45 41 39 38 40 41 39 38 38 38 38 39 40 39 40 40 40 40 41 42
49 49 47 47 47 46 45 48 50 52 55 58 61 62 59 53 53 52 53 50 46 49 53 53 49 45 42 42 43 44 43 43 43 42 43 44 44 44 45 45 44 44 45 46
50 51 50 50 52 51 54 47 46 48 52 54 57 64 57 52 51 51 49 48 45 46 54 55 49 47 46 46 46 49 47 47 48 48 48 48 48 49 49 49 49 49 49 52
50 48 46 45 45 47 45 48 49 47 50 54 54 59 59 48 48 46 47 47 47 47 50 53 49 48 48 49 51 51 52 52 53 53 53 53 52 52 52 53 53 52 56 62
56 55 53 52 51 49 50 50 48 50 53 59 54 55 66 48 43 44 45 46 46 46 46 49 49 50 52 54 54 55 56 57 57 57 57 57 56 56 56 56 56 59 62 65
59 59 54 52 54 54 57 57 56 56 54 61 57 56 62 57 45 43 43 44 45 45 46 48 51 52 53 54 56 57 58 59 59 59 59 59 60 60 60 60 62 64 68 72
56 62 63 60 55 53 54 54 54 55 62 63 58 61 57 55 47 44 45 44 45 45 46 49 51 52 53 54 55 57 60 60 61 61 61 62 63 62 63 63 66 68 71 75
59 59 57 57 56 56 57 59 52 57 62 64 68 66 60 56 50 46 45 44 45 47 49 50 51 53 54 55 57 58 60 62 62 63 63 63 63 64 66 67 70 73 75 76
50 52 54 55 59 60 59 53 54 58 61 65 67 65 64 55 52 51 47 49 49 49 49 50 51 53 54 55 56 58 60 61 61 62 63 64 65 66 67 71 74 74 74 75
58 60 58 59 60 57 54 53 52 51 54 56 59 58 60 62 61 61 57 53 50 50 49 50 51 53 54 55 57 58 59 60 61 62 64 65 67 71 72 73 73 74 73 72
42 50 52 55 54 53 53 52 51 54 54 53 55 58 52 51 54 59 62 60 52 48 50 51 50 51 53 55 56 57 58 60 63 65 68 70 71 69 69 70 70 70 70 71
37 40 44 50 52 53 55 54 53 52 51 52 52 52 45 47 46 47 50 54 56 59 61 60 59 58 58 59 59 60 62 63 62 62 64 65 65 66 67 68 69 71 72 73
45 45 48 48 43 40 42 44 44 45 49 50 53 48 50 44 40 43 44 44 47 51 52 52 51 49 50 51 53 54 55 56 58 60 63 64 66 68 69 70 69 69 68 68
47 47 45 50 48 47 48 47 44 46 44 50 44 46 42 44 42 43 45 47 50 52 52 53 53 52 52 52 52 53 56 57 60 62 62 63 63 64 64 65 66 66 66 68
44 45 46 44 44 47 49 49 50 51 49 51 47 47 37 41 47 47 48 50 49 49 51 52 53 53 55 57 57 57 57 58 61 62 63 64 63 64 64 64 66 67 69 69
46 50 49 49 43 47 53 47 47 43 45 47 51 45 44 48 48 47 48 50 50 51 52 54 56 57 58 59 60 60 60 61 62 63 64 64 65 66 67 68 68 67 66 67
46 46 51 53 54 57 51 47 46 46 44 45 47 44 43 44 47 51 48 49 51 51 52 53 55 56 59 61 63 64 64 63 63 64 66 66 65 65 65 65 65 63 61 60
47 54 54 57 61 58 55 49 52 52 49 43 46 47 46 46 52 55 53 52 52 52 52 52 57 60 62 64 66 67 67 67 67 67 66 66 67 67 63 62 60 59 56 52
46 53 52 58 69 60 40 34 34 44 53 41 44 42 43 41 48 51 39 44 48 53 63 64 65 66 65 61 58 59 59 60 59 57 58 59 57 57 58 59 59 57 52 50
67 64 50 50 48 52 38 39 50 61 52 44 44 41 42 46 48 48 49 52 57 62 62 62 63 59 56 56 57 59 62 67 66 66 61 57 55 57 55 50 53 54 57 56
74 69 53 55 55 59 54 58 58 45 43 40 46 44 45 47 49 53 58 63 64 59 58 57 56 58 59 61 62 64 67 67 67 67 67 61 61 56 54 51 51 51 55 59
79 66 52 45 43 40 40 46 49 53 45 45 46 45 47 50 49 52 52 51 51 53 57 60 64 65 69 70 70 70 71 72 70 66 66 67 68 70 58 59 60 58 56 57
78 76 68 48 50 52 55 47 46 48 45 45 48 48 54 54 50 48 52 57 57 57 60 65 68 71 74 72 71 71 71 69 67 64 65 64 61 61 60 59 61 59 62 62
44 73 69 66 56 55 53 44 41 48 51 46 46 44 43 45 45 48 50 54 58 63 63 66 72 75 75 73 70 69 69 68 65 62 60 59 61 62 64 65 66 65 66 65
18 33 64 71 61 61 63 55 48 48 47 44 42 40 44 49 52 57 59 61 64 60 59 63 64 60 61 65 65 63 63 61 60 58 61 60 62 64 66 64 66 65 65 67
Wind_Direction
233 237 232 235 237 238 241 240 241 242 244 248 252 254 255 255 257 259 261 260 259 254 247 245 246 248 252 250 254 258 260 264 267 270 272 274 275 277 280 280 281 283 285 288
237 238 237 236 238 240 240 242 244 248 249 249 251 253 256 255 257 261 258 257 256 254 249 246 248 248 250 252 254 258 261 264 267 269 271 272 275 277 277 277 278 280 283 284
236 241 239 238 239 241 244 247 249 250 251 252 252 251 254 255 254 256 259 258 255 254 251 250 249 251 250 251 253 257 259 261 263 265 268 269 271 272 273 275 277 279 281 284
230 234 237 242 241 244 244 250 251 251 251 252 254 254 252 256 255 255 256 258 255 250 249 248 249 251 250 251 253 256 258 260 262 264 267 269 271 272 273 275 276 278 281 284
233 232 235 241 243 245 248 246 251 252 254 253 252 258 252 253 257 255 253 252 249 248 249 250 252 253 253 253 254 257 259 262 264 267 269 272 274 276 276 276 277 279 287 289
234 234 237 238 241 243 245 248 252 254 255 255 254 256 252 253 253 253 255 256 251 248 248 250 252 253 254 256 258 260 262 264 266 268 271 273 275 277 277 276 278 282 289 293
237 240 243 245 245 245 247 248 250 252 256 259 260 259 257 259 253 251 250 252 255 255 252 251 251 254 255 256 257 260 262 264 266 269 271 273 275 276 276 276 276 282 286 289
236 239 241 245 248 252 255 256 254 255 253 257 258 255 253 259 260 257 252 252 253 253 254 255 256 256 257 259 260 262 263 265 267 269 270 272 273 275 274 275 277 281 284 288
239 243 245 247 249 249 251 251 257 257 256 257 254 253 254 259 263 264 264 261 258 256 255 255 256 256 256 257 258 260 262 264 266 268 269 271 271 272 274 276 279 282 286 287
241 245 246 247 247 248 251 253 252 253 253 256 257 257 257 260 265 267 263 262 261 260 260 260 259 259 258 259 260 262 263 264 266 267 268 269 270 272 275 278 280 283 285 286
252 251 248 247 247 250 251 253 254 257 257 259 261 259 260 259 262 267 268 265 263 262 261 259 259 260 261 262 262 261 262 263 265 266 267 270 274 277 280 281 283 284 284 283
245 245 244 246 246 246 247 247 249 251 254 257 258 253 262 266 265 263 264 266 263 262 263 262 262 263 264 264 266 269 271 271 271 272 274 277 278 280 280 280 280 281 282 282
239 236 239 239 240 240 242 245 247 249 251 253 258 257 262 266 267 266 266 266 268 268 266 266 267 269 271 272 273 272 273 274 276 276 276 277 278 279 279 279 280 280 281 281
232 237 237 240 247 251 247 249 251 253 253 253 254 255 257 261 264 266 267 270 270 272 273 274 274 274 273 273 273 274 276 275 274 275 276 276 277 277 277 278 279 280 281 282
230 235 240 240 242 246 246 247 248 249 251 250 256 253 251 259 262 265 270 270 268 270 273 273 274 275 274 273 274 274 275 275 275 275 276 276 276 277 279 281 281 282 282 283
224 232 234 236 240 244 249 252 252 253 252 254 253 254 260 257 257 257 260 264 266 269 271 272 272 273 274 274 273 272 271 271 272 273 274 275 276 278 279 279 280 281 281 281
236 239 240 237 241 248 247 247 256 260 259 261 256 259 251 254 263 266 266 266 268 270 270 272 274 274 274 275 276 276 275 274 273 274 275 275 276 277 277 277 279 279 281 282
231 239 239 243 243 248 250 247 254 256 254 256 255 258 258 258 258 264 267 272 274 274 274 275 277 279 280 280 281 282 281 280 279 278 277 278 280 280 280 279 279 280 283 284
237 239 244 248 247 247 247 245 250 259 262 266 263 255 257 268 270 268 272 271 270 272 276 282 284 282 279 276 276 277 278 280 282 283 283 283 283 282 281 281 280 281 283 283
228 236 237 253 246 246 248 249 250 257 259 263 271 267 268 263 260 267 262 265 272 281 292 290 285 282 281 281 282 284 283 283 283 283 281 280 280 282 282 281 281 279 280 280
241 251 247 237 243 251 229 261 267 258 266 269 262 259 259 253 259 260 258 275 282 287 288 283 276 277 281 283 284 285 284 284 284 285 286 283 282 281 281 283 282 282 280 279
245 248 251 253 250 263 258 268 267 271 264 249 251 254 256 262 267 275 279 286 289 282 273 277 280 280 281 283 281 280 279 279 282 283 284 284 281 282 284 282 283 283 282 280
247 241 251 245 248 249 255 242 249 257 250 245 250 261 267 275 279 278 278 278 277 279 281 280 279 279 280 279 280 279 279 279 278 275 275 275 277 284 284 282 281 279 277 278
241 240 241 246 247 251 245 250 250 259 258 257 267 275 281 282 276 272 275 281 282 282 283 284 283 279 277 276 273 273 275 275 275 275 276 277 277 273 271 276 277 279 281 278
245 233 238 243 246 249 255 251 253 251 252 256 264 262 265 273 275 276 280 284 285 283 279 279 278 275 274 274 274 275 277 278 278 279 278 274 272 271 272 272 272 272 273 273
289 246 239 245 248 253 253 253 266 271 266 264 265 268 272 276 280 285 287 284 279 278 283 286 278 278 278 277 276 276 276 276 275 272 270 271 273 276 278 276 273 276 279 278
Height
5745 5751 5759 5768 5774 5775 5778 5781 5785 5788 5794 5796 5798 5801 5808 5813 5810 5813 5817 5821 5820 5822 5824 5825 5829 5831 5833 5836 5836 5835 5837 5838 5838 5839 5839 5838 5838 5838 5839 5837 5836 5834 5833 5831
5737 5743 5751 5755 5760 5764 5768 5771 5776 5780 5783 5785 5787 5789 5795 5803 5804 5804 5807 5809 5812 5812 5813 5816 5820 5824 5825 5827 5827 5827 5829 5830 5830 5830 5830 5829 5828 5829 5828 5828 5827 5826 5825 5824
5730 5738 5742 5746 5751 5755 5759 5763 5767 5769 5771 5773 5774 5777 5783 5791 5792 5796 5797 5801 5803 5803 5804 5807 5811 5814 5817 5819 5819 5819 5821 5821 5821 5821 5821 5820 5820 5820 5819 5818 5818 5817 5816 5814
5719 5725 5731 5735 5741 5746 5750 5754 5756 5758 5759 5761 5763 5761 5775 5781 5784 5785 5788 5791 5794 5794 5793 5795 5801 5805 5807 5809 5810 5809 5811 5811 5811 5811 5810 5810 5810 5809 5809 5808 5808 5807 5806 5804
5715 5719 5724 5728 5736 5737 5742 5744 5745 5746 5747 5748 5754 5752 5762 5772 5774 5777 5778 5779 5782 5783 5784 5786 5791 5794 5796 5797 5798 5799 5799 5800 5800 5800 5799 5799 5798 5798 5797 5797 5796 5794 5794 5791
5701 5707 5712 5720 5723 5726 5730 5734 5735 5735 5737 5734 5744 5747 5746 5762 5767 5768 5769 5769 5771 5775 5777 5778 5779 5781 5783 5784 5786 5787 5787 5787 5788 5788 5787 5787 5786 5785 5785 5784 5782 5781 5778 5776
5693 5699 5704 5710 5712 5715 5719 5722 5722 5725 5727 5727 5735 5736 5741 5744 5754 5757 5759 5760 5760 5762 5764 5765 5767 5768 5770 5772 5772 5773 5774 5774 5774 5774 5774 5774 5773 5772 5770 5769 5768 5766 5764 5762
5681 5685 5693 5698 5703 5709 5711 5711 5713 5715 5714 5718 5718 5719 5730 5731 5741 5744 5746 5748 5749 5751 5752 5754 5754 5755 5756 5758 5759 5760 5759 5760 5761 5761 5760 5759 5758 5758 5756 5755 5753 5751 5750 5747
5673 5677 5684 5687 5692 5694 5695 5696 5708 5703 5703 5703 5707 5713 5719 5723 5728 5732 5734 5737 5739 5739 5740 5740 5741 5741 5742 5743 5743 5744 5745 5745 5746 5746 5745 5745 5744 5743 5741 5740 5739 5736 5733 5731
5660 5663 5668 5673 5674 5677 5682 5690 5688 5686 5689 5690 5696 5701 5709 5716 5717 5717 5723 5722 5723 5726 5726 5726 5726 5727 5729 5730 5730 5730 5730 5731 5731 5731 5730 5729 5728 5727 5726 5724 5722 5719 5717 5715
5648 5652 5658 5659 5662 5670 5674 5674 5677 5678 5680 5682 5687 5694 5698 5703 5704 5703 5705 5708 5710 5710 5712 5712 5712 5714 5716 5716 5715 5715 5716 5716 5716 5715 5714 5713 5712 5711 5708 5706 5704 5701 5699 5697
5641 5639 5643 5648 5653 5658 5659 5662 5663 5664 5670 5672 5672 5681 5690 5691 5690 5689 5688 5688 5693 5696 5696 5694 5698 5701 5701 5700 5701 5702 5702 5701 5700 5700 5700 5697 5695 5693 5691 5689 5686 5684 5682 5680
5629 5627 5630 5633 5637 5642 5644 5650 5654 5655 5656 5660 5663 5678 5682 5678 5679 5675 5674 5675 5674 5676 5678 5681 5685 5687 5687 5688 5688 5686 5685 5684 5685 5684 5682 5680 5678 5677 5675 5673 5671 5668 5666 5662
5615 5616 5617 5623 5634 5636 5637 5640 5644 5645 5643 5653 5653 5667 5664 5668 5668 5665 5661 5662 5662 5660 5662 5667 5670 5672 5672 5671 5671 5671 5671 5670 5669 5668 5667 5666 5663 5661 5658 5656 5655 5652 5650 5647
5604 5606 5610 5616 5618 5620 5625 5627 5630 5630 5641 5634 5654 5650 5661 5657 5657 5654 5652 5652 5647 5648 5652 5653 5654 5657 5658 5659 5659 5658 5656 5653 5652 5652 5650 5648 5645 5643 5641 5640 5638 5635 5633 5630
5596 5597 5600 5603 5608 5609 5609 5613 5619 5623 5627 5625 5638 5638 5652 5648 5641 5642 5642 5636 5637 5640 5638 5639 5641 5644 5644 5641 5642 5643 5642 5640 5638 5636 5634 5632 5630 5627 5624 5622 5620 5617 5615 5612
5587 5588 5592 5593 5599 5597 5593 5605 5609 5613 5615 5619 5618 5634 5637 5634 5631 5632 5625 5624 5627 5625 5625 5626 5628 5629 5629 5627 5625 5625 5625 5623 5622 5621 5619 5616 5613 5611 5608 5605 5602 5600 5597 5594
5578 5581 5581 5584 5586 5579 5589 5599 5599 5601 5604 5604 5606 5616 5623 5622 5619 5611 5615 5617 5613 5611 5611 5614 5615 5615 5614 5612 5609 5606 5605 5602 5603 5602 5601 5598 5596 5593 5590 5588 5585 5582 5580 5577
5568 5570 5572 5571 5571 5575 5577 5590 5591 5588 5594 5599 5598 5604 5608 5606 5596 5601 5607 5601 5598 5598 5600 5601 5602 5601 5601 5598 5595 5591 5589 5587 5586 5584 5582 5580 5577 5575 5573 5570 5567 5565 5562 5560
5557 5560 5563 5563 5555 5558 5577 5583 5582 5578 5572 5591 5589 5591 5591 5589 5580 5593 5591 5588 5587 5586 5586 5585 5583 5582 5582 5581 5578 5576 5573 5571 5569 5567 5564 5561 5559 5558 5555 5552 5550 5548 5546 5543
5544 5545 5547 5551 5544 5550 5567 5568 5567 5558 5574 5584 5574 5574 5573 5571 5573 5576 5579 5578 5577 5577 5575 5572 5569 5567 5566 5565 5564 5562 5559 5556 5553 5549 5546 5544 5542 5541 5538 5536 5534 5531 5528 5527
5526 5534 5537 5537 5535 5538 5552 5550 5548 5556 5559 5559 5557 5556 5558 5561 5564 5564 5565 5564 5561 5560 5559 5557 5555 5554 5552 5551 5549 5546 5544 5541 5537 5534 5531 5528 5526 5524 5523 5520 5518 5515 5513 5510
5506 5519 5525 5525 5526 5533 5538 5536 5535 5537 5540 5544 5545 5546 5545 5548 5550 5549 5548 5546 5546 5545 5544 5542 5540 5538 5536 5534 5531 5528 5526 5523 5520 5517 5514 5512 5510 5507 5505 5503 5500 5498 5495 5492
5497 5507 5507 5511 5519 5524 5525 5527 5527 5526 5527 5530 5532 5531 5529 5530 5531 5532 5533 5532 5530 5528 5525 5522 5519 5516 5514 5513 5511 5508 5506 5503 5501 5498 5496 5493 5490 5488 5486 5483 5482 5479 5477 5475
5484 5489 5496 5500 5510 5512 5514 5513 5513 5512 5513 5515 5516 5516 5517 5515 5516 5515 5515 5515 5512 5509 5505 5500 5497 5494 5491 5489 5487 5486 5484 5482 5481 5479 5476 5474 5472 5470 5467 5464 5461 5459 5457 5454
5477 5479 5483 5489 5497 5492 5496 5498 5497 5499 5500 5499 5500 5502 5502 5501 5500 5498 5497 5494 5491 5487 5484 5480 5475 5471 5469 5468 5466 5464 5463 5461 5460 5459 5458 5456 5454 5452 5450 5446 5443 5441 5437 5435